Dewpoint
65 63 67 65 62 56 41 40 41 43 45 49 49 49 50 53 57 57 65 65 68 69 72 73 77 77 77 77 77 76 76 74 74 74 73 73 73 73 72 73 72 71 72 71 71 72 71 73 72
63 67 67 64 52 39 42 40 43 45 47 50 52 52 53 52 55 58 60 65 66 68 71 72 77 77 77 77 77 76 76 75 75 74 73 73 73 73 72 72 72 72 72 72 71 71 71 73 72
67 69 66 59 51 38 38 42 45 46 48 48 50 56 58 53 54 56 61 63 65 67 68 73 77 77 76 76 76 76 75 75 74 74 74 73 73 73 72 72 71 71 72 71 71 71 72 72 72
66 66 64 53 40 39 40 43 45 46 46 48 52 55 54 55 55 58 61 62 64 66 70 76 77 76 75 76 76 76 76 75 74 74 73 72 72 72 72 71 71 71 72 71 71 72 72 71 71
66 66 59 43 40 41 43 43 44 44 45 47 53 55 55 57 58 58 60 61 61 67 71 73 77 77 76 75 75 75 74 74 74 73 73 73 72 72 72 71 72 72 72 71 72 71 71 70 71
65 63 54 40 39 42 43 44 43 43 43 48 53 56 57 58 57 57 58 60 59 68 68 71 76 77 75 75 75 75 74 74 74 73 73 73 73 73 73 72 72 72 72 73 72 71 70 71 71
63 63 51 40 40 43 44 45 42 43 44 44 50 53 57 56 57 57 59 59 59 65 66 69 71 74 75 75 75 74 74 74 74 73 73 74 74 74 72 73 72 73 73 71 71 71 72 73 73
61 60 48 42 41 41 45 44 45 43 44 47 51 53 54 55 57 58 58 58 60 62 65 67 70 70 71 71 76 75 75 75 75 74 74 74 74 74 74 74 75 73 73 73 73 73 72 72 72
59 56 53 43 42 42 43 43 43 45 46 46 48 50 55 56 56 56 57 56 59 61 63 64 68 70 71 72 73 75 75 74 74 74 74 74 72 72 73 74 76 75 74 73 73 72 73 74 73
62 58 51 42 43 42 45 43 44 45 49 49 48 54 56 56 56 55 55 55 57 57 60 64 65 67 66 66 73 73 72 72 73 73 74 73 71 73 72 74 76 75 74 74 76 76 75 73 72
59 57 43 47 45 45 42 42 49 47 48 51 48 53 54 55 56 55 55 56 56 57 58 65 65 67 66 66 73 71 70 70 72 77 75 73 71 72 71 74 73 74 74 70 73 73 73 73 73
56 54 50 50 50 50 46 44 43 47 46 52 51 53 54 55 54 54 55 55 56 57 57 56 62 66 66 66 70 68 67 70 71 71 76 75 74 70 70 72 73 74 73 73 72 73 71 73 73
58 51 47 48 51 51 47 47 51 48 50 53 53 53 53 53 53 54 53 54 55 57 58 58 65 71 69 71 72 72 69 69 69 71 73 73 73 74 74 72 72 73 71 71 74 72 72 73 74
56 52 49 49 52 50 50 53 50 52 53 54 53 51 52 52 52 53 54 54 56 58 58 58 62 71 69 74 76 74 71 73 71 71 71 74 73 75 74 75 73 72 72 73 74 73 72 72 73
51 55 52 53 52 55 54 53 54 54 54 54 53 51 51 52 52 53 54 56 56 57 58 61 64 67 73 75 75 75 72 66 72 70 75 74 75 75 76 73 73 72 73 74 74 74 73 72 71
51 57 53 53 49 52 51 54 52 55 53 53 54 51 50 51 51 53 55 57 60 60 64 64 60 63 69 73 75 72 70 71 73 72 71 75 75 75 76 71 70 71 73 71 71 72 71 72 71
52 53 52 54 49 53 53 56 61 59 53 53 53 52 49 50 51 54 54 56 58 63 67 68 68 65 70 74 72 72 73 71 69 70 67 74 72 72 73 71 70 72 73 71 71 71 70 70 71
48 43 47 46 45 44 48 53 56 52 51 52 53 53 50 49 49 51 52 53 56 61 66 69 69 73 74 73 73 71 70 69 69 68 66 72 71 73 74 71 72 74 71 71 72 74 74 75 72
43 41 37 38 37 42 39 47 49 50 49 51 52 54 53 51 51 52 52 55 57 62 67 69 71 75 74 72 71 71 69 69 68 68 71 72 71 71 73 70 71 71 71 73 75 75 74 71 70
43 43 37 36 38 43 35 39 45 46 47 48 49 52 53 53 54 56 58 59 59 63 67 71 72 76 74 72 72 72 71 69 68 69 71 71 72 72 72 72 70 70 69 72 72 74 72 74 73
41 42 35 35 33 33 34 34 37 41 44 46 47 50 51 53 53 56 60 61 60 63 67 70 73 75 75 75 73 74 73 73 71 70 74 73 72 72 72 73 72 71 71 69 72 72 74 68 70
41 41 33 33 35 34 36 33 43 37 36 40 43 46 47 50 53 57 59 61 61 62 64 69 73 74 76 76 74 76 71 70 70 71 71 72 76 74 73 73 74 73 68 70 69 73 73 73 69
39 32 32 41 44 48 40 39 37 36 35 38 38 40 41 44 48 49 53 59 59 61 62 66 73 75 75 76 76 74 75 73 73 72 76 74 77 76 74 75 75 74 73 71 71 72 72 71 72
34 35 38 38 41 40 39 42 39 35 36 39 35 37 39 41 44 46 50 55 57 58 60 65 73 75 76 77 77 76 77 77 76 76 77 75 72 73 75 75 75 76 76 75 74 74 73 72 73
35 34 33 33 35 31 33 34 37 38 37 39 39 35 38 40 40 44 49 50 53 56 58 64 75 76 77 77 76 77 78 78 77 77 75 75 73 73 75 75 75 75 75 75 75 75 73 73 71
34 30 31 35 24 22 28 34 36 39 38 40 36 34 35 39 38 38 41 48 52 56 63 67 75 76 76 75 77 78 78 76 76 76 75 74 73 74 78 76 75 74 74 75 76 75 75 74 74
30 32 28 24 21 24 28 32 39 39 38 32 30 30 33 35 34 37 38 45 50 55 63 68 75 77 76 76 77 78 78 78 76 79 80 76 78 75 76 77 76 74 74 75 75 73 74 73 73
25 24 21 22 28 27 25 30 31 31 31 33 30 28 32 32 32 36 41 53 49 54 66 69 74 76 76 77 77 77 78 78 78 78 77 77 76 76 75 75 75 75 75 74 74 74 74 73 72
19 15 17 19 17 21 21 24 29 33 31 30 28 30 33 39 42 44 44 47 53 58 66 70 72 75 76 78 77 78 77 78 77 77 76 75 75 76 75 74 74 74 74 73 74 73 73 72 72
23 18 14 18 24 18 18 18 26 29 27 31 31 39 40 41 43 50 52 56 64 67 69 71 74 75 77 78 78 77 76 76 75 75 75 76 75 74 73 74 73 72 73 74 73 72 71 71 71
Lifted_Index
-4 -5 -6 -5 -4 -3 -3 -2 -1 -1 -1 -1 -1 -1 -1 -1 -2 -2 -2 -2 -2 -2 -2 -3 -3 -3 -3 -4 -3 -3 -3 -2 -2 -2 -2 -2 -2 -2 -2 -2 -2 -2 -2 -2 -2 -3 -3 -3 -3
-5 -5 -6 -5 -4 -3 -2 -2 -1 -1 -1 -1 -2 -2 -2 -1 -1 -1 -1 -1 -1 -2 -2 -3 -3 -3 -3 -3 -3 -3 -3 -3 -2 -2 -2 -2 -2 -2 -2 -2 -2 -2 -2 -2 -2 -3 -3 -3 -3
-6 -6 -6 -5 -3 -2 -2 -1 -1 -1 -1 -1 -2 -2 -2 -1 -0 -0 -1 -1 -1 -1 -2 -3 -3 -3 -3 -3 -3 -3 -3 -3 -2 -2 -2 -2 -2 -2 -2 -2 -2 -2 -2 -2 -2 -3 -3 -3 -3
-6 -6 -6 -4 -3 -2 -1 -1 -1 -0 -0 -1 -1 -2 -1 -0 0 0 -0 -1 -1 -1 -2 -3 -4 -3 -3 -3 -3 -3 -3 -2 -2 -2 -2 -2 -2 -2 -2 -2 -2 -2 -2 -2 -2 -3 -3 -3 -3
-5 -5 -5 -4 -2 -1 -1 -1 -0 0 0 -0 -1 -1 -1 -0 0 0 0 -0 -1 -1 -2 -3 -3 -3 -3 -3 -2 -2 -2 -2 -2 -2 -2 -3 -3 -3 -2 -2 -2 -2 -2 -2 -2 -3 -3 -3 -3
-4 -4 -4 -3 -2 -1 -1 -0 0 1 1 0 -1 -1 -1 -0 0 0 0 0 -0 -1 -1 -2 -3 -3 -3 -2 -2 -2 -2 -2 -2 -2 -3 -3 -3 -3 -3 -2 -2 -2 -2 -2 -2 -2 -2 -2 -3
-3 -3 -3 -2 -1 -1 -0 0 0 1 1 1 -0 -1 -1 -0 0 1 1 0 0 -0 -0 -1 -2 -2 -2 -2 -3 -3 -3 -3 -3 -3 -3 -3 -3 -3 -3 -2 -2 -2 -2 -2 -3 -3 -3 -3 -3
-3 -3 -3 -2 -1 -0 0 1 1 1 1 1 0 -0 -0 0 1 1 1 1 0 0 -0 -0 -1 -2 -2 -3 -3 -3 -3 -3 -3 -3 -3 -3 -3 -3 -3 -3 -3 -3 -3 -3 -3 -3 -3 -2 -2
-3 -3 -3 -2 -1 0 1 1 1 1 1 1 1 0 0 0 1 1 1 1 1 0 0 -0 -1 -2 -2 -3 -3 -3 -3 -3 -3 -3 -3 -3 -3 -3 -3 -3 -3 -3 -3 -4 -4 -4 -3 -3 -2
-2 -3 -3 -1 -0 0 0 0 0 -0 -0 0 1 1 0 1 1 1 1 1 1 1 -0 -1 -1 -2 -2 -2 -3 -4 -3 -3 -3 -3 -3 -3 -3 -3 -3 -4 -4 -4 -4 -4 -4 -4 -4 -3 -2
-1 -2 -2 -1 -1 -0 -1 -1 -1 -1 -1 -0 1 1 1 1 1 1 1 1 1 1 0 -1 -1 -2 -2 -2 -3 -3 -3 -3 -3 -4 -4 -3 -3 -3 -3 -4 -4 -4 -4 -4 -4 -4 -4 -3 -3
-1 -2 -2 -2 -1 -1 -1 -1 -1 -0 -0 -0 1 1 1 1 1 1 1 1 1 1 1 0 -1 -2 -2 -2 -3 -3 -2 -3 -3 -4 -4 -4 -3 -3 -3 -4 -4 -4 -4 -4 -4 -4 -3 -3 -3
-2 -2 -2 -2 -1 -1 -1 -1 -1 -0 -0 -0 1 1 1 1 1 1 1 1 1 1 1 1 -0 -1 -2 -2 -2 -2 -2 -2 -3 -3 -3 -4 -4 -4 -3 -3 -4 -4 -3 -4 -4 -4 -4 -4 -4
-2 -2 -2 -2 -2 -1 -1 -1 -1 -1 -1 -0 0 1 2 2 2 2 1 1 1 1 1 0 -0 -1 -2 -2 -3 -3 -2 -2 -2 -3 -3 -4 -4 -4 -3 -3 -3 -3 -3 -4 -4 -4 -4 -4 -4
-2 -2 -2 -2 -2 -2 -1 -1 -2 -2 -2 -1 -0 1 2 2 2 2 1 1 1 0 0 0 -0 -1 -2 -3 -3 -3 -2 -2 -2 -2 -3 -4 -4 -4 -3 -3 -3 -3 -3 -3 -4 -4 -4 -4 -4
-2 -2 -1 -2 -2 -2 -1 -1 -2 -2 -2 -2 -1 0 1 2 2 1 1 0 0 -0 -0 -0 -0 -1 -2 -3 -3 -3 -2 -2 -2 -2 -3 -3 -4 -4 -3 -3 -3 -3 -3 -3 -3 -4 -4 -4 -4
-2 -2 -2 -2 -2 -2 -2 -2 -2 -3 -3 -2 -1 -0 1 1 1 1 1 0 -0 -1 -1 -1 -1 -1 -2 -3 -3 -3 -2 -2 -2 -2 -2 -3 -4 -4 -4 -3 -3 -3 -3 -3 -4 -4 -4 -4 -4
-2 -2 -2 -2 -2 -2 -3 -3 -3 -3 -2 -2 -2 -1 -0 1 1 1 1 1 0 -0 -1 -2 -2 -2 -3 -3 -3 -3 -2 -2 -2 -1 -1 -2 -3 -3 -4 -4 -4 -4 -4 -4 -4 -5 -5 -4 -4
-1 -1 -2 -1 -1 -2 -2 -3 -3 -2 -2 -1 -2 -2 -1 -0 0 0 0 0 0 -1 -2 -2 -3 -3 -3 -3 -3 -3 -2 -2 -2 -2 -2 -2 -2 -3 -3 -3 -3 -3 -4 -4 -5 -5 -5 -4 -4
-1 -1 -1 -0 -1 -1 -1 -1 -2 -1 -1 -1 -1 -1 -1 -1 -1 -1 -1 -1 -1 -1 -2 -3 -4 -4 -4 -4 -4 -4 -3 -3 -3 -2 -2 -2 -2 -2 -3 -3 -2 -2 -3 -4 -5 -5 -5 -5 -4
0 -0 -1 -0 -0 -0 -0 -0 -1 -0 -0 -0 -0 -1 -1 -1 -1 -2 -2 -2 -2 -2 -3 -4 -5 -5 -5 -5 -5 -4 -4 -4 -3 -3 -3 -3 -3 -3 -3 -3 -2 -2 -2 -3 -4 -5 -5 -5 -5
0 0 -0 -1 -0 -0 -0 -0 -0 0 1 0 0 0 -0 -0 -1 -1 -2 -2 -2 -3 -3 -4 -5 -5 -6 -6 -6 -5 -5 -5 -4 -4 -4 -4 -4 -4 -3 -3 -3 -3 -2 -2 -3 -4 -5 -5 -5
0 -0 -0 -1 -1 -0 -0 -0 0 1 1 0 0 1 1 0 -0 -1 -1 -2 -2 -3 -3 -4 -5 -6 -6 -6 -6 -6 -6 -6 -6 -6 -5 -5 -5 -5 -5 -5 -4 -4 -4 -3 -3 -4 -4 -5 -5
0 -0 -0 -1 -1 -0 -0 -0 0 1 1 0 -0 0 0 -0 -0 -1 -1 -1 -2 -2 -3 -4 -6 -7 -7 -7 -7 -7 -7 -7 -7 -7 -7 -6 -5 -5 -5 -5 -5 -5 -5 -5 -5 -5 -4 -4 -4
-0 -0 -1 -1 -1 -0 -0 -0 0 1 1 0 -0 -0 -0 -1 -1 -1 -1 -1 -1 -1 -2 -4 -6 -7 -7 -7 -7 -8 -8 -8 -8 -8 -7 -7 -6 -6 -6 -6 -6 -6 -6 -6 -6 -5 -5 -4 -4
-1 -1 -1 -1 -1 -1 -1 -1 -0 0 0 0 -0 -0 -1 -1 -1 -1 -1 -1 -1 -1 -2 -4 -7 -8 -7 -7 -7 -8 -8 -8 -8 -8 -7 -7 -7 -6 -6 -6 -6 -5 -5 -6 -6 -5 -5 -5 -5
-0 -0 -1 -1 -1 -1 -1 -1 -1 -1 -1 -0 -0 -0 -0 -1 -0 -0 -1 -1 -2 -2 -3 -5 -7 -8 -8 -8 -8 -8 -8 -8 -8 -8 -8 -7 -7 -7 -6 -6 -6 -5 -5 -5 -5 -5 -5 -5 -4
-0 -0 -1 -1 -1 -1 -1 -1 -0 -1 -1 0 0 0 0 0 0 0 -0 -1 -2 -3 -4 -5 -7 -8 -8 -8 -9 -9 -9 -8 -8 -8 -8 -7 -7 -7 -6 -6 -5 -5 -5 -5 -5 -5 -5 -4 -4
0 -0 -1 -1 -1 -1 -1 -1 -0 -0 -0 0 1 1 1 1 1 1 0 -1 -2 -3 -4 -6 -7 -8 -8 -9 -9 -9 -9 -9 -8 -8 -7 -7 -7 -6 -6 -5 -5 -5 -5 -5 -5 -4 -4 -4 -4
0 0 -1 -1 -1 -1 -1 -1 -0 -0 -0 0 1 2 2 2 1 1 -0 -1 -3 -4 -5 -6 -7 -8 -8 -9 -9 -9 -9 -8 -8 -8 -7 -7 -6 -6 -5 -5 -5 -5 -5 -5 -4 -4 -4 -4 -4